Date String (YYYY-MM-DD hh:mm:ss) UTC,Instrument flags,Ambient pressure (hPa),Sample flow (lpm),Bypass flow (lpm),Sample temperature (°C),Ambient temperature (°C),ASC tube jacket temperature (°C),LED temperature (°C),Box temperature (°C),Sample RH (%),Span deviation,Mass concentration (μg/m³),Mass concentration (μg/m³),Mass concentration (μg/m³)
DateTimeUTC,F1_M11,P_M11,Q1_M11,Q2_M11,T1_M11,T2_M11,T3_M11,T4_M11,T5_M11,U1_M11,ZSPAN_M11,X0_M11,X2_M11,X1_M11
2022-07-16 10:00:00,,0830.9,5.00,0.00,31.1,28.7,00.0,39.4,32.1,34.5,0000.0,0008.63,0004.95,0004.30
2022-07-16 10:01:00,,0830.9,4.99,0.00,31.1,28.8,00.0,39.4,32.2,34.5,0000.0,0008.78,0005.03,0004.36
2022-07-16 10:02:00,,0830.9,5.00,0.00,31.1,28.9,00.0,39.5,32.2,34.5,0000.0,0008.66,0005.06,0004.40
2022-07-16 10:03:00,,0830.9,5.01,0.00,31.1,28.9,00.0,39.5,32.3,34.5,0000.0,0008.62,0005.12,0004.46
2022-07-16 10:04:00,,0830.9,5.01,0.00,31.1,28.3,00.0,39.4,32.2,34.5,0000.0,0008.60,0005.15,0004.52
2022-07-16 10:05:00,,0830.9,4.99,0.00,31.0,27.5,00.0,39.3,32.1,34.5,0000.0,0008.65,0005.18,0004.54
2022-07-16 10:06:00,,0830.9,5.01,0.00,30.9,27.2,00.0,39.3,31.9,34.6,0000.0,0008.60,0005.17,0004.54
2022-07-16 10:07:00,,0830.9,4.99,0.00,30.8,27.1,00.0,39.3,31.8,34.9,0000.0,0008.69,0005.19,0004.55
2022-07-16 10:08:00,,0830.9,5.00,0.00,30.7,27.2,00.0,39.3,31.7,35.2,0000.0,0008.64,0005.20,0004.55
2022-07-16 10:09:00,,0830.9,4.99,0.00,30.9,27.4,00.0,39.2,31.8,34.9,0000.0,0008.86,0005.26,0004.54
2022-07-16 10:10:00,,0830.9,4.99,0.00,31.0,27.5,00.0,39.2,31.9,34.5,0000.0,0008.91,0005.20,0004.49
2022-07-16 10:11:00,,0830.9,5.01,0.00,31.1,27.7,00.0,39.2,31.9,34.3,0000.0,0009.03,0005.15,0004.44
2022-07-16 10:12:00,,0830.9,5.00,0.00,31.1,27.9,00.0,39.2,31.9,34.3,0000.0,0009.00,0005.13,0004.39
2022-07-16 10:13:00,,0830.8,5.00,0.00,31.1,28.0,00.0,39.3,31.9,34.2,0000.0,0009.02,0005.13,0004.37
2022-07-16 10:14:00,,0830.8,5.01,0.00,31.1,28.2,00.0,39.3,32.0,34.2,0000.0,0008.94,0005.10,0004.36
2022-07-16 10:15:00,,0830.8,5.00,0.00,31.1,28.3,00.0,39.3,32.0,34.3,0000.0,0008.97,0005.10,0004.35
2022-07-16 10:16:00,,0830.7,5.00,0.00,31.1,28.4,00.0,39.3,32.0,34.4,0000.0,0008.94,0005.10,0004.34
2022-07-16 10:17:00,,0830.7,5.00,0.00,31.1,28.5,00.0,39.4,32.0,34.4,0000.0,0008.88,0005.09,0004.33
2022-07-16 10:18:00,,0830.6,5.00,0.00,31.0,28.6,00.0,39.4,32.0,34.5,0000.0,0008.80,0005.06,0004.31
2022-07-16 10:19:00,,0830.6,5.00,0.00,31.0,28.7,00.0,39.4,32.1,34.7,0000.0,0008.76,0005.02,0004.29
2022-07-16 10:20:00,,0830.6,5.01,0.00,31.0,28.7,00.0,39.4,32.1,34.8,0000.0,0008.58,0004.94,0004.26
2022-07-16 10:21:00,,0830.5,4.99,0.00,31.0,28.8,00.0,39.4,32.1,34.7,0000.0,0008.36,0004.91,0004.26
2022-07-16 10:22:00,,0830.5,5.00,0.00,31.0,28.9,00.0,39.4,32.2,34.8,0000.0,0008.16,0004.88,0004.26
2022-07-16 10:23:00,,0830.5,5.00,0.00,31.0,28.9,00.0,39.5,32.2,34.9,0000.0,0008.20,0004.89,0004.26
2022-07-16 10:24:00,,0830.6,5.00,0.00,31.0,29.0,00.0,39.5,32.2,34.9,0000.0,0008.13,0004.87,0004.26
2022-07-16 10:25:00,,0830.6,5.01,0.00,31.0,28.6,00.0,39.4,32.2,34.8,0000.0,0008.15,0004.86,0004.24
2022-07-16 10:26:00,,0830.6,5.00,0.00,30.9,28.0,00.0,39.4,32.1,34.9,0000.0,0008.39,0004.84,0004.22
2022-07-16 10:27:00,,0830.5,5.00,0.00,30.9,27.7,00.0,39.3,32.0,35.1,0000.0,0008.70,0004.80,0004.20
2022-07-16 10:28:00,,0830.5,4.99,0.00,30.9,27.6,00.0,39.3,32.0,35.3,0000.0,0008.85,0004.81,0004.18
2022-07-16 10:29:00,,0830.5,4.99,0.00,31.1,27.7,00.0,39.3,32.1,34.8,0000.0,0008.90,0004.79,0004.14
2022-07-16 10:30:00,,0830.4,5.00,0.00,31.2,27.8,00.0,39.3,32.1,34.4,0000.0,0008.92,0004.78,0004.11
2022-07-16 10:31:00,,0830.5,4.99,0.00,31.3,28.0,00.0,39.3,32.1,34.3,0000.0,0008.84,0004.75,0004.09
2022-07-16 10:32:00,,0830.5,5.01,0.00,31.3,28.1,00.0,39.3,32.1,34.3,0000.0,0008.90,0004.74,0004.06
2022-07-16 10:33:00,,0830.4,5.00,0.00,31.3,28.2,00.0,39.4,32.0,34.3,0000.0,0008.90,0004.73,0004.03
2022-07-16 10:34:00,,0830.5,4.99,0.00,31.3,28.4,00.0,39.4,32.1,34.3,0000.0,0008.87,0004.70,0004.01
2022-07-16 10:35:00,,0830.5,5.00,0.00,31.3,28.5,00.0,39.4,32.1,34.2,0000.0,0009.01,0004.68,0003.98
2022-07-16 10:36:00,,0830.5,5.00,0.00,31.3,28.6,00.0,39.5,32.1,34.3,0000.0,0009.04,0004.65,0003.94
2022-07-16 10:37:00,,0830.5,5.00,0.00,31.2,28.7,00.0,39.5,32.1,34.4,0000.0,0009.11,0004.63,0003.92
2022-07-16 10:38:00,,0830.5,5.00,0.00,31.2,28.7,00.0,39.5,32.2,34.4,0000.0,0008.71,0004.61,0003.90
2022-07-16 10:39:00,,0830.5,5.00,0.00,31.2,28.8,00.0,39.5,32.2,34.3,0000.0,0008.52,0004.54,0003.88
2022-07-16 10:40:00,,0830.5,5.00,0.00,31.2,28.9,00.0,39.6,32.2,34.4,0000.0,0008.34,0004.50,0003.88
2022-07-16 10:41:00,,0830.4,5.00,0.00,31.2,28.9,00.0,39.6,32.3,34.3,0000.0,0008.26,0004.48,0003.88
2022-07-16 10:42:00,,0830.3,5.00,0.00,31.2,29.0,00.0,39.6,32.3,34.3,0000.0,0008.23,0004.49,0003.90
2022-07-16 10:43:00,,0830.4,5.00,0.00,31.2,29.0,00.0,39.6,32.3,34.2,0000.0,0008.29,0004.55,0003.92
2022-07-16 10:44:00,,0830.3,4.99,0.00,31.2,28.4,00.0,39.5,32.3,34.2,0000.0,0008.31,0004.57,0003.95
2022-07-16 10:45:00,,0830.3,5.00,0.00,31.1,27.9,00.0,39.5,32.2,34.1,0000.0,0008.33,0004.60,0003.98
2022-07-16 10:46:00,,0830.2,5.00,0.00,31.0,27.7,00.0,39.5,32.1,34.4,0000.0,0008.26,0004.62,0004.02
2022-07-16 10:47:00,,0830.2,5.00,0.00,30.9,27.7,00.0,39.5,32.0,34.6,0000.0,0008.15,0004.66,0004.07
2022-07-16 10:48:00,,0830.3,5.01,0.00,30.8,27.8,00.0,39.4,31.9,34.7,0000.0,0008.00,0004.70,0004.11
2022-07-16 10:49:00,,0830.3,4.99,0.00,30.7,28.0,00.0,39.4,31.9,34.8,0000.0,0007.97,0004.76,0004.16
2022-07-16 10:50:00,,0830.3,5.00,0.00,30.7,28.1,00.0,39.4,31.9,34.9,0000.0,0008.10,0004.83,0004.21
2022-07-16 10:51:00,,0830.3,5.00,0.00,30.7,28.2,00.0,39.4,32.0,35.0,0000.0,0008.34,0004.92,0004.27
2022-07-16 10:52:00,,0830.4,5.01,0.00,30.8,28.3,00.0,39.4,32.0,35.0,0000.0,0008.51,0005.00,0004.31
2022-07-16 10:53:00,,0830.4,5.00,0.00,30.9,28.4,00.0,39.3,32.1,34.5,0000.0,0008.66,0005.08,0004.34
2022-07-16 10:54:00,,0830.4,5.00,0.00,31.0,28.5,00.0,39.3,32.2,34.3,0000.0,0009.14,0005.08,0004.37
2022-07-16 10:55:00,,0830.4,5.00,0.00,31.1,28.6,00.0,39.4,32.2,34.3,0000.0,0009.25,0005.11,0004.42
2022-07-16 10:56:00,,0830.3,5.00,0.00,31.1,28.7,00.0,39.4,32.2,34.7,0000.0,0009.33,0005.16,0004.46
2022-07-16 10:57:00,,0830.3,5.00,0.00,31.1,28.8,00.0,39.4,32.2,35.5,0000.0,0009.38,0005.21,0004.49
2022-07-16 10:58:00,,0830.2,5.00,0.00,31.3,28.8,00.0,39.4,32.4,34.6,0000.0,0009.48,0005.26,0004.53
2022-07-16 10:59:00,,0830.2,5.00,0.00,31.5,28.9,00.0,39.5,32.4,33.9,0000.0,0009.50,0005.31,0004.57
